This is the latest recevied weather packets stored in our database for station/object N8QF-1. If no packets are shown the sender has not sent any weather packets the latest 1 day(s).
| Time | Temp. | Humidity | Pressure | Rain* | Wind** | Luminosity | Snow |
|---|---|---|---|---|---|---|---|
| 1778045241 | 8.89° C | 97% | 1007.2 hPa | 3.56 mm | 5.36 m/s, 1° | - | - |
| 1778044338 | 8.89° C | 97% | 1008.1 hPa | 3.56 mm | 5.81 m/s, 322° | - | - |
| 1778044039 | 9.44° C | 97% | 1007.7 hPa | 3.56 mm | 4.92 m/s, 301° | - | - |
| 1778043438 | 10° C | 98% | 1007.5 hPa | 3.56 mm | 1.79 m/s, 359° | - | - |
| 1778043137 | 10° C | 98% | 1007.4 hPa | 1.52 mm | 3.13 m/s, 319° | - | - |
| 1778042535 | 10° C | 100% | 1007.3 hPa | 1.52 mm | 4.47 m/s, 332° | - | - |
| 1778042235 | 10° C | 99% | 1007.2 hPa | 1.52 mm | 3.58 m/s, 346° | - | - |
| 1778041934 | 10° C | 98% | 1007.3 hPa | 1.52 mm | 3.13 m/s, 321° | - | - |
| 1778041634 | 10° C | 98% | 1007.5 hPa | 1.52 mm | 4.92 m/s, 6° | - | - |
| 1778041333 | 10° C | 100% | 1007.5 hPa | 1.52 mm | 2.68 m/s, 315° | - | - |
| 1778041032 | 10° C | 100% | 1007.4 hPa | 1.52 mm | 4.92 m/s, 329° | - | - |
| 1778040731 | 10° C | 100% | 1007.3 hPa | 1.52 mm | 4.02 m/s, 0° | - | - |
| 1778040430 | 10° C | 100% | 1007.4 hPa | 1.52 mm | 4.92 m/s, 307° | - | - |
| 1778040129 | 10.56° C | 100% | 1007.5 hPa | 1.52 mm | 3.58 m/s, 309° | - | - |
| 1778039828 | 10.56° C | 98% | 1007.2 hPa | 1.52 mm | 4.02 m/s, 343° | - | - |
| 1778039528 | 10.56° C | 98% | 1007.1 hPa | 2.03 mm | 3.58 m/s, 305° | - | - |
| 1778039227 | 10.56° C | 98% | 1007 hPa | 2.03 mm | 2.68 m/s, 357° | - | - |
| 1778038927 | 10.56° C | 98% | 1007 hPa | 2.03 mm | 2.24 m/s, 15° | - | - |
| 1778038626 | 10.56° C | 98% | 1007.1 hPa | 2.03 mm | 3.13 m/s, 349° | - | - |
| 1778038326 | 10.56° C | 98% | 1007 hPa | 2.03 mm | 2.68 m/s, 345° | - | - |
| 1778038025 | 10.56° C | 98% | 1007 hPa | 2.03 mm | 1.34 m/s, 357° | - | - |
| 1778037725 | 10.56° C | 98% | 1006.9 hPa | 2.03 mm | 2.24 m/s, 336° | - | - |
| 1778037424 | 10.56° C | 98% | 1007 hPa | 2.03 mm | 2.68 m/s, 58° | - | - |
| 1778037123 | 11.11° C | 98% | 1007.1 hPa | 2.03 mm | 2.24 m/s, 6° | - | - |
| 1778036822 | 11.11° C | 98% | 1007.2 hPa | 2.03 mm | 3.13 m/s, 30° | - | - |
* Rain latest hour (hover to see other rain measurements)
** Current wind speed in m/s (hover to see current wind gust speed)